[[{"header":{"parameterUnit":"m.s-1","parameterCategory":1,"la1":30.2991,"la2":30.254,"lo1":-89.0895,"lo2":-89.0444,"dy":0.0017,"dx":0.0017,"nx":28,"ny":28,"refTime":"2024-10-10T09:00:00:Z","depth":0,"parameterNumber":2,"parameterNumberName":"U-component_of_WINDS"},"data":[0,0,0,0,0,0,0,0,0,0,0,0,0,0,0,0,0,0,0,0,0,0,0,0,0,0,0,0,0,0,0,0,0,0,0,0,0,0,0,0,0,0,0,0,0,0,0,0,0,0,0,0,0,0,0,0,0,0,-1.1615,-1.1615,0,-1.1571,-1.1571,-1.157,-1.1498,-1.1496,-1.1495,-1.1494,-1.145,-1.145,-1.145,0,0,0,0,0,0,0,0,0,0,0,0,0,-1.1639,-1.1639,-1.1616,-1.1615,-1.1614,-1.1571,-1.1571,-1.157,-1.1498,-1.1496,-1.1495,-1.1493,-1.145,-1.145,-1.145,0,0,0,0,0,0,0,0,0,0,0,0,0,-1.1615,-1.1639,-1.1616,-1.1573,-1.1569,-1.1571,-1.1571,-1.157,-1.1498,-1.1496,-1.1494,-1.1492,-1.145,-1.145,-1.145,-1.1491,0,0,-1.1451,-1.1451,0,0,0,0,0,0,0,0,-1.1616,-1.1614,-1.158,-1.1576,-1.1571,-1.1538,-1.1563,-1.1543,-1.1499,-1.1525,-1.1494,-1.1491,-1.1481,-1.1479,-1.1475,-1.1489,-1.1487,-1.1451,-1.1451,-1.1451,-1.1451,0,0,0,0,0,0,0,-1.1618,-1.1616,-1.1598,-1.158,-1.1574,-1.1557,-1.1551,-1.1559,-1.1515,-1.1523,-1.1517,-1.1513,-1.1478,-1.1475,-1.1473,-1.1487,-1.1451,-1.1451,-1.1451,-1.1451,-1.1531,-1.1533,0,0,0,0,0,0,-1.1626,-1.1618,-1.1599,-1.1597,-1.1589,-1.1558,-1.1552,-1.1551,-1.1515,-1.1507,-1.1515,-1.151,-1.1476,-1.1473,-1.1471,-1.1517,-1.1451,-1.1451,-1.1451,-1.1529,-1.1532,-1.1534,0,0,0,0,0,0,-1.1627,-1.1625,-1.1601,-1.1606,-1.1601,-1.156,-1.1559,-1.1551,-1.1547,-1.1509,-1.1501,-1.1519,-1.1474,-1.1471,-1.1486,-1.1514,-1.1451,-1.1451,-1.1527,-1.153,-1.1533,-1.1608,0,0,0,0,0,0,-1.1628,-1.1626,-1.1641,-1.1606,-1.1601,-1.1617,-1.1561,-1.1551,-1.1547,-1.154,-1.1511,-1.1504,-1.1472,-1.1487,-1.1487,-1.1513,-1.1451,-1.1524,-1.1528,-1.1532,-1.1603,-1.1614,-1.1623,0,0,0,0,0,-1.1629,-1.1664,-1.1642,-1.164,-1.1619,-1.1619,-1.1616,-1.1579,-1.155,-1.1565,-1.154,-1.1505,-1.1511,-1.1489,-1.1488,-1.1516,-1.1522,-1.1527,-1.1532,-1.1599,-1.1612,-1.1622,0,0,0,0,0,0,-1.1704,-1.1659,-1.1634,-1.1659,-1.1643,-1.1607,-1.1625,-1.1593,-1.1586,-1.158,-1.1534,-1.1527,-1.1549,-1.1533,-1.151,-1.1552,-1.1511,-1.1516,-1.1563,-1.1574,-1.1584,-1.1588,-1.1451,0,0,0,0,0,-1.1723,-1.1727,-1.1687,-1.1713,-1.1707,-1.1667,-1.1666,-1.1638,-1.162,-1.1613,-1.1589,-1.1573,-1.1571,-1.1572,-1.1568,-1.16,-1.1592,-1.1618,-1.1628,-1.1636,-1.1641,-1.1657,-1.1668,-1.1549,-1.1549,-1.1549,0,0,-1.1764,-1.174,-1.1745,-1.1728,-1.1712,-1.1717,-1.1662,-1.167,-1.1673,-1.1614,-1.1628,-1.1609,-1.1588,-1.1612,-1.1622,-1.16,-1.1672,-1.1642,-1.1648,-1.1649,-1.1663,-1.1674,-1.1684,-1.1552,-1.1552,-1.1551,0,0,-1.1841,-1.1822,-1.1842,-1.1827,-1.1804,-1.1777,-1.1782,-1.175,-1.1735,-1.1747,-1.1703,-1.1706,-1.1704,-1.1691,-1.1684,-1.1754,-1.1721,-1.1753,-1.1805,-1.1821,-1.183,-1.1838,-1.1864,-1.1874,-1.1758,-1.1759,-1.1759,0,-1.1895,-1.19,-1.1857,-1.1867,-1.1861,-1.1806,-1.1826,-1.1814,-1.1791,-1.1788,-1.1764,-1.1759,-1.1741,-1.1762,-1.1779,-1.1774,-1.1779,-1.1758,-1.1832,-1.184,-1.1847,-1.1871,-1.1881,-1.1763,-1.1762,-1.1762,-1.1762,0,-1.1968,-1.1972,-1.199,-1.1969,-1.1965,-1.198,-1.1939,-1.194,-1.1911,-1.1887,-1.19,-1.1876,-1.1867,-1.1869,-1.1842,-1.1885,-1.1872,-1.1841,-1.1798,-1.1863,-1.1885,-1.1894,-1.1769,-1.1767,-1.1766,-1.1765,0,0,-1.2094,-1.2046,-1.2054,-1.2043,-1.2013,-1.2015,-1.2027,-1.2017,-1.2019,-1.2004,-1.2014,-1.2012,-1.1982,-1.1974,-1.1945,-1.1958,-1.2016,-1.1925,-1.1924,-1.1944,-1.2063,-1.2088,-1.21,-1.1993,-1.1995,-1.1996,-1.2065,0,-1.2166,-1.2184,-1.2145,-1.2173,-1.2176,-1.2123,-1.2133,-1.2116,-1.2093,-1.2092,-1.2066,-1.2067,-1.2027,-1.2022,-1.2033,-1.2007,-1.204,-1.2001,-1.2003,-1.2003,-1.2012,-1.2111,-1.2138,-1.2205,-1.2073,-1.2075,-1.2076,0,-1.2253,-1.2242,-1.227,-1.2237,-1.2237,-1.2247,-1.2234,-1.2234,-1.2212,-1.2194,-1.2185,-1.2149,-1.2159,-1.2116,-1.2129,-1.2104,-1.2101,-1.2089,-1.209,-1.2091,-1.2045,-1.2116,-1.2225,-1.2236,-1.2089,-1.2087,-1.2087,0,-1.2344,-1.2336,-1.2351,-1.2344,-1.2305,-1.2313,-1.2297,-1.2274,-1.227,-1.2258,-1.2255,-1.2245,-1.224,-1.2232,-1.2195,-1.2168,-1.2213,-1.2167,-1.2199,-1.22,-1.2213,-1.2214,-1.2326,-1.2209,-1.2209,-1.2208,-1.2208,0,-1.243,-1.245,-1.2392,-1.2402,-1.2422,-1.2376,-1.2397,-1.2376,-1.2355,-1.236,-1.2313,-1.2319,-1.2268,-1.2268,-1.2239,-1.2254,-1.2252,-1.2238,-1.2231,-1.2244,-1.2246,-1.2244,-1.2239,-1.2211,-1.221,-1.221,-1.2209,0,-1.2536,-1.2498,-1.2512,-1.2473,-1.2464,-1.2481,-1.2448,-1.2455,-1.2428,-1.2435,-1.2434,-1.2392,-1.2389,-1.235,-1.234,-1.232,-1.2348,-1.233,-1.2356,-1.2351,-1.2386,-1.2384,-1.2502,-1.2516,-1.2388,-1.239,-1.2391,0,-1.2595,-1.2609,-1.2571,-1.2571,-1.2557,-1.2557,-1.2552,-1.2506,-1.2504,-1.2479,-1.249,-1.2483,-1.2476,-1.2474,-1.2443,-1.2434,-1.2418,-1.2459,-1.2416,-1.2429,-1.242,-1.2421,-1.2422,-1.247,-1.2471,-1.2473,-1.2474,0,-1.2704,-1.2683,-1.2678,-1.2666,-1.2662,-1.265,-1.2636,-1.2638,-1.2588,-1.2587,-1.2583,-1.2577,-1.2566,-1.256,-1.2546,-1.2529,-1.2494,-1.2487,-1.2494,-1.2509,-1.2524,-1.2518,-1.2383,-1.2485,-1.2484,-1.2483,-1.2483,-1.2482,-1.2789,-1.2799,-1.2774,-1.2769,-1.2753,-1.274,-1.2746,-1.2718,-1.2714,-1.2701,-1.2674,-1.2675,-1.2651,-1.2628,-1.2614,-1.2614,-1.2593,-1.2603,-1.2606,-1.261,-1.2617,-1.2522,-1.2611,-1.2611,-1.261,-1.261,-1.261,0,-1.2897,-1.2877,-1.2873,-1.2854,-1.2851,-1.2815,-1.2797,-1.2797,-1.2798,-1.2778,-1.2772,-1.2767,-1.2761,-1.2728,-1.2718,-1.2725,-1.2708,-1.2724,-1.2724,-1.2721,-1.2636,-1.2632,-1.2737,-1.2737,-1.2737,-1.2737,-1.2737,-1.2737,-1.2953,-1.2967,-1.2944,-1.295,-1.293,-1.293,-1.2923,-1.2911,-1.2895,-1.2892,-1.2887,-1.2865,-1.284,-1.2827,-1.282,-1.281,-1.281,-1.2831,-1.2817,-1.2739,-1.2727,-1.2715,-1.2711,-1.2831,-1.2831,-1.2901,-1.2902,-1.2903]},{"header":{"parameterUnit":"m.s-1","parameterCategory":1,"la1":30.2991,"la2":30.254,"lo1":-89.0895,"lo2":-89.0444,"dy":0.0017,"dx":0.0017,"nx":28,"ny":28,"refTime":"2024-10-10T09:00:00:Z","depth":0,"parameterNumber":3,"parameterNumberName":"V-component_of_WINDS"},"data":[0,0,0,0,0,0,0,0,0,0,0,0,0,0,0,0,0,0,0,0,0,0,0,0,0,0,0,0,0,0,0,0,0,0,0,0,0,0,0,0,0,0,0,0,0,0,0,0,0,0,0,0,0,0,0,0,0,0,-5.3424,-5.3425,0,-5.3499,-5.35,-5.35,-5.3426,-5.3423,-5.342,-5.3417,-5.3489,-5.3493,-5.3498,0,0,0,0,0,0,0,0,0,0,0,0,0,-5.3212,-5.3217,-5.3424,-5.3425,-5.3426,-5.3499,-5.35,-5.3501,-5.3426,-5.3422,-5.3419,-5.3416,-5.3487,-5.3493,-5.3498,0,0,0,0,0,0,0,0,0,0,0,0,0,-5.3297,-5.3218,-5.3424,-5.3398,-5.3396,-5.3499,-5.35,-5.3501,-5.3427,-5.3422,-5.3418,-5.3414,-5.3486,-5.3492,-5.3499,-5.363,0,0,-5.352,-5.3523,0,0,0,0,0,0,0,0,-5.3293,-5.3305,-5.34,-5.34,-5.3398,-5.3448,-5.3451,-5.3544,-5.3428,-5.3415,-5.3417,-5.3412,-5.3479,-5.3486,-5.3509,-5.3633,-5.3636,-5.3521,-5.3525,-5.3528,-5.353,0,0,0,0,0,0,0,-5.3287,-5.3302,-5.3453,-5.3402,-5.34,-5.3381,-5.3388,-5.3469,-5.347,-5.3416,-5.341,-5.3421,-5.3477,-5.3503,-5.3511,-5.3638,-5.3521,-5.3527,-5.3531,-5.3534,-5.3872,-5.3877,0,0,0,0,0,0,-5.3284,-5.3297,-5.3451,-5.3456,-5.3334,-5.3388,-5.3396,-5.3437,-5.3469,-5.347,-5.3424,-5.3417,-5.3493,-5.3503,-5.3513,-5.3668,-5.3528,-5.3535,-5.3539,-5.3868,-5.3873,-5.3879,0,0,0,0,0,0,-5.328,-5.3299,-5.3448,-5.3375,-5.3393,-5.3396,-5.3442,-5.344,-5.3466,-5.3476,-5.3475,-5.3451,-5.349,-5.3503,-5.3602,-5.3669,-5.3538,-5.3544,-5.3862,-5.3869,-5.3876,-5.398,0,0,0,0,0,0,-5.3275,-5.3298,-5.3349,-5.3377,-5.3397,-5.3537,-5.3447,-5.3445,-5.3479,-5.347,-5.35,-5.3501,-5.3488,-5.3592,-5.3609,-5.3677,-5.355,-5.3856,-5.3865,-5.3874,-5.397,-5.399,-5.4006,0,0,0,0,0,-5.3267,-5.3374,-5.3352,-5.3371,-5.3461,-5.3541,-5.3553,-5.3536,-5.3485,-5.3535,-5.3541,-5.35,-5.366,-5.3603,-5.3621,-5.3692,-5.3851,-5.3862,-5.3873,-5.3962,-5.3986,-5.4006,0,0,0,0,0,0,-5.3351,-5.3377,-5.3353,-5.3472,-5.3505,-5.3529,-5.3591,-5.3562,-5.3609,-5.3598,-5.3574,-5.3582,-5.3687,-5.3699,-5.3635,-5.382,-5.3747,-5.3762,-5.3808,-5.3831,-5.3849,-5.3843,-5.3555,0,0,0,0,0,-5.3384,-5.3449,-5.3467,-5.3571,-5.3589,-5.3588,-5.3622,-5.3607,-5.364,-5.3653,-5.3666,-5.3699,-5.3756,-5.3794,-5.3847,-5.3972,-5.3977,-5.403,-5.4048,-5.4062,-5.4075,-5.4142,-5.4165,-5.3914,-5.3914,-5.3914,0,0,-5.3452,-5.3474,-5.3516,-5.3588,-5.3612,-5.3679,-5.36,-5.3674,-5.3722,-5.3664,-5.3758,-5.3769,-5.3804,-5.3916,-5.3966,-5.393,-5.4146,-5.4076,-5.4088,-5.4093,-5.4155,-5.4179,-5.42,-5.3921,-5.392,-5.3919,0,0,-5.3609,-5.3633,-5.3722,-5.3748,-5.3786,-5.3785,-5.3806,-5.3835,-5.384,-5.3935,-5.3893,-5.395,-5.4049,-5.4075,-5.4102,-5.427,-5.4234,-5.4288,-5.4382,-5.4447,-5.4467,-5.4484,-5.4544,-5.4565,-5.4301,-5.4302,-5.4302,0,-5.3688,-5.3788,-5.3771,-5.3848,-5.3881,-5.3833,-5.3922,-5.3948,-5.4001,-5.4024,-5.3982,-5.4107,-5.4126,-5.4244,-5.4285,-5.4309,-5.4331,-5.4284,-5.4465,-5.4483,-5.4499,-5.4555,-5.4578,-5.4308,-5.4307,-5.4307,-5.4306,0,-5.3883,-5.3953,-5.402,-5.4075,-5.4115,-5.4198,-5.4191,-5.4234,-5.4216,-5.4218,-5.4315,-5.4337,-5.4394,-5.4421,-5.4403,-5.4537,-5.4513,-5.4469,-5.4395,-5.4529,-5.4582,-5.4604,-5.4317,-5.4315,-5.4313,-5.4311,0,0,-5.4094,-5.4139,-5.4164,-5.4189,-5.4228,-5.4281,-5.4361,-5.4419,-5.4455,-5.4494,-5.456,-5.4645,-5.4606,-5.4636,-5.462,-5.4677,-5.4809,-5.4626,-5.4627,-5.4659,-5.4957,-5.499,-5.5015,-5.4786,-5.479,-5.4793,-5.4954,0,-5.4253,-5.4394,-5.4381,-5.4514,-5.4579,-5.4534,-5.4604,-5.4635,-5.464,-5.4694,-5.4698,-5.476,-5.4702,-5.472,-5.4775,-5.4782,-5.4869,-5.477,-5.4846,-5.4849,-5.4838,-5.5043,-5.5077,-5.5228,-5.4975,-5.4978,-5.4981,0,-5.4456,-5.4504,-5.4644,-5.4674,-5.47,-5.4764,-5.4816,-5.4868,-5.4902,-5.4901,-5.4936,-5.4911,-5.499,-5.4915,-5.5024,-5.4957,-5.4987,-5.4995,-5.5001,-5.5006,-5.4922,-5.5053,-5.5276,-5.5298,-5.5013,-5.501,-5.5008,0,-5.4596,-5.4695,-5.4792,-5.4814,-5.4851,-5.4897,-5.4914,-5.4944,-5.4979,-5.5024,-5.5047,-5.51,-5.5129,-5.517,-5.5159,-5.5105,-5.527,-5.5194,-5.5271,-5.5271,-5.5307,-5.5305,-5.5536,-5.5328,-5.5327,-5.5327,-5.5326,0,-5.4773,-5.4861,-5.4855,-5.4915,-5.5011,-5.4995,-5.5091,-5.5102,-5.5129,-5.5189,-5.5154,-5.521,-5.5193,-5.5249,-5.5241,-5.5332,-5.5345,-5.5346,-5.5342,-5.5349,-5.5349,-5.5368,-5.5357,-5.5333,-5.5332,-5.533,-5.5329,0,-5.4945,-5.4945,-5.5048,-5.5076,-5.5085,-5.5155,-5.5177,-5.5233,-5.5235,-5.5312,-5.5329,-5.5332,-5.5396,-5.539,-5.5461,-5.5455,-5.5568,-5.5552,-5.5557,-5.5554,-5.5631,-5.5623,-5.5882,-5.5915,-5.5686,-5.5688,-5.569,0,-5.5059,-5.5125,-5.5161,-5.52,-5.5221,-5.5283,-5.532,-5.5306,-5.5345,-5.539,-5.544,-5.5501,-5.5548,-5.5652,-5.566,-5.5714,-5.5699,-5.5786,-5.5707,-5.5711,-5.57,-5.5696,-5.5702,-5.5801,-5.5804,-5.5806,-5.5808,0,-5.5259,-5.5256,-5.5312,-5.5367,-5.5413,-5.5455,-5.5494,-5.5527,-5.5517,-5.5563,-5.5629,-5.5666,-5.574,-5.58,-5.5852,-5.5867,-5.5836,-5.5833,-5.5853,-5.586,-5.586,-5.5861,-5.5599,-5.5827,-5.5825,-5.5824,-5.5822,-5.5822,-5.5405,-5.5462,-5.5497,-5.5559,-5.5588,-5.5625,-5.5679,-5.5689,-5.5744,-5.5804,-5.5792,-5.5866,-5.5898,-5.5964,-5.5985,-5.6042,-5.601,-5.604,-5.6047,-5.6055,-5.6064,-5.5852,-5.6051,-5.6051,-5.605,-5.605,-5.6049,0,-5.5604,-5.5624,-5.5682,-5.5738,-5.5788,-5.5756,-5.5797,-5.584,-5.5906,-5.5939,-5.5988,-5.6063,-5.6122,-5.6135,-5.6191,-5.6234,-5.6221,-5.6249,-5.6245,-5.6249,-5.6089,-5.6066,-5.6259,-5.6258,-5.6258,-5.6258,-5.6258,-5.6258,-5.5713,-5.5808,-5.5809,-5.5918,-5.5937,-5.6011,-5.6037,-5.6071,-5.6097,-5.6184,-5.6233,-5.6242,-5.6267,-5.6325,-5.6377,-5.6379,-5.6401,-5.6435,-5.6432,-5.6281,-5.626,-5.6241,-5.6218,-5.644,-5.644,-5.6587,-5.6588,-5.6589]}]]